GW5591 Weather Reports


time (UTC)temp
C
wind
direction
speed
KPH
gust
KPH
rain 1hr
cm
rain 24hr
cm
rain mn
cm
humidity
%
barometer
mb
20260509201328 15 65 1.6 4.8 0.00 0.30 0.30 63 1009.8
20260509200825 15 264 3.2 4.8 0.00 0.30 0.30 63 1010.0
20260509200320 15 162 3.2 11.3 0.00 0.30 0.30 62 1010.2
20260509195816 15 145 0.0 3.2 0.00 0.30 0.30 64 1010.1
20260509195311 15 164 3.2 4.8 0.00 0.30 0.30 64 1010.2
20260509194810 15 116 0.0 4.8 0.00 0.30 0.30 64 1010.1
20260509194307 15 124 1.6 1.6 0.00 0.30 0.30 62 1010.3
20260509193804 15 144 3.2 4.8 0.00 0.30 0.30 62 1010.3
20260509193304 15 128 0.0 6.4 0.00 0.30 0.30 64 1010.1
20260509192800 14 121 3.2 3.2 0.00 0.30 0.30 64 1010.2
20260509192255 14 163 1.6 3.2 0.00 0.30 0.30 70 1010.0
20260509191751 14 147 1.6 3.2 0.00 0.30 0.30 66 1010.3
20260509191248 14 113 0.0 1.6 0.00 0.30 0.30 67 1010.2
20260509190743 14 186 1.6 3.2 0.00 0.30 0.30 67 1010.1
20260509190241 14 139 0.0 1.6 0.00 0.30 0.30 68 1010.3
20260509185738 14 113 0.0 1.6 0.00 0.30 0.30 66 1010.1
20260509185234 14 143 0.0 1.6 0.00 0.30 0.30 66 1010.2
20260509184732 14 159 0.0 3.2 0.00 0.30 0.30 67 1010.0
20260509184229 14 278 1.6 3.2 0.00 0.30 0.30 66 1010.1
20260509183725 14 96 0.0 1.6 0.00 0.30 0.30 64 1010.2
20260509183221 14 32 1.6 3.2 0.00 0.30 0.30 65 1010.2
20260509182716 14 143 1.6 3.2 0.00 0.30 0.30 70 1010.1
20260509182214 13 136 1.6 1.6 0.00 0.30 0.30 68 1010.1
20260509181711 13 107 1.6 3.2 0.00 0.30 0.30 67 1010.1
20260509181209 13 262 0.0 1.6 0.00 0.30 0.30 73 1010.1
20260509180706 13 101 1.6 1.6 0.00 0.30 0.30 73 1010.4
20260509180202 13 109 0.0 1.6 0.00 0.30 0.30 72 1010.3
20260509175658 13 104 0.0 0.0 0.00 0.30 0.30 77 1010.3
20260509175155 12 103 0.0 1.6 0.00 0.30 0.30 78 1010.2
20260509174651 12 95 0.0 0.0 0.00 0.30 0.30 78 1010.3
20260509174151 12 89 0.0 0.0 0.00 0.30 0.30 81 1010.1
20260509173647 12 114 0.0 1.6 0.00 0.30 0.30 79 1010.4
20260509173143 12 124 0.0 0.0 0.00 0.30 0.30 80 1010.4
20260509172639 12 124 0.0 1.6 0.00 0.30 0.30 76 1010.4
20260509172136 12 129 0.0 1.6 0.00 0.30 0.30 77 1010.2
20260509171631 12 124 0.0 0.0 0.00 0.30 0.30 78 1010.3
20260509171128 12 123 0.0 1.6 0.00 0.30 0.30 78 1010.3
20260509170625 12 117 0.0 1.6 0.00 0.30 0.30 79 1010.5
20260509170121 12 115 1.6 1.6 0.00 0.30 0.30 78 1010.4
20260509165619 12 158 0.0 1.6 0.00 0.30 0.30 80 1010.4
20260509165115 12 34 1.6 1.6 0.00 0.30 0.30 81 1010.4
20260509164611 12 111 0.0 1.6 0.00 0.30 0.30 84 1010.2
20260509164107 11 111 0.0 1.6 0.00 0.30 0.30 87 1010.4
20260509163605 11 109 0.0 0.0 0.00 0.30 0.30 87 1010.4
20260509163100 11 149 0.0 1.6 0.00 0.30 0.30 86 1010.6
20260509162558 11 158 0.0 1.6 0.00 0.30 0.30 85 1010.6
20260509162054 11 176 0.0 1.6 0.00 0.30 0.30 85 1010.6
20260509161550 11 176 0.0 1.6 0.00 0.30 0.30 85 1010.7
20260509161050 11 288 3.2 3.2 0.00 0.30 0.30 86 1010.8
20260509160547 11 213 0.0 1.6 0.00 0.30 0.30 85 1010.7
20260509160042 11 310 0.0 1.6 0.00 0.30 0.30 87 1010.7
20260509155539 11 105 0.0 1.6 0.00 0.30 0.30 89 1010.6
20260509155035 10 105 0.0 0.0 0.00 0.30 0.30 90 1010.8
20260509154531 10 105 0.0 0.0 0.00 0.30 0.30 90 1011.1
20260509154029 10 103 0.0 0.0 0.00 0.30 0.30 91 1011.1
20260509153525 10 103 0.0 0.0 0.00 0.30 0.30 91 1010.9
20260509153022 10 100 0.0 0.0 0.00 0.30 0.30 91 1011.1
20260509152518 10 97 0.0 0.0 0.18 0.30 0.30 91 1011.2
20260509152015 10 102 0.0 0.0 0.18 0.30 0.30 91 1011.1
20260509151511 10 102 0.0 0.0 0.00 0.28 0.28 91 1011.1
20260509151010 10 102 0.0 0.0 0.00 0.28 0.28 91 1010.9
20260509150507 10 104 0.0 0.0 0.00 0.28 0.28 92 1011.1
20260509150005 10 104 0.0 0.0 0.00 0.28 0.28 92 1011.1
20260509145500 10 104 0.0 0.0 0.00 0.28 0.28 91 1010.9
20260509144955 10 103 0.0 0.0 0.00 0.28 0.28 91 1010.8
20260509144453 10 107 0.0 0.0 0.00 0.28 0.28 91 1011.1
20260509143950 10 106 0.0 0.0 0.00 0.28 0.28 92 1010.8
20260509143447 10 106 0.0 0.0 0.00 0.28 0.28 91 1010.7
20260509142943 10 107 0.0 0.0 0.00 0.28 0.28 92 1010.9
20260509142440 10 109 0.0 1.6 0.00 0.28 0.28 91 1010.8
20260509141935 10 107 0.0 1.6 0.00 0.28 0.28 92 1010.9
20260509141432 10 107 0.0 0.0 0.00 0.28 0.28 93 1010.9
20260509140929 10 107 0.0 0.0 0.00 0.28 0.28 93 1010.9
20260509140425 10 107 0.0 0.0 0.00 0.28 0.28 93 1010.8
20260509135924 9 105 0.0 0.0 0.00 0.28 0.28 93 1010.8
20260509135421 9 116 0.0 0.0 0.00 0.28 0.28 93 1010.7
20260509134918 9 124 0.0 0.0 0.00 0.28 0.28 94 1010.8
20260509134415 9 124 0.0 1.6 0.00 0.28 0.28 94 1011.1
20260509133912 8 124 1.6 1.6 0.00 0.28 0.28 94 1010.9
20260509133409 8 123 0.0 1.6 0.00 0.28 0.28 94 1011.2
20260509132908 8 100 0.0 1.6 0.00 0.28 0.28 94 1011.2
20260509132405 8 99 0.0 0.0 0.00 0.28 0.28 94 1011.4
20260509131902 8 99 0.0 0.0 0.13 0.28 0.28 94 1011.3
20260509131359 8 111 0.0 0.0 0.00 0.25 0.25 94 1011.4
20260509130856 8 92 0.0 0.0 0.18 0.25 0.25 94 1011.5
20260509130351 8 115 0.0 0.0 0.18 0.25 0.25 94 1011.1
20260509125848 8 115 0.0 1.6 0.00 0.23 0.23 95 1011.5
20260509125344 8 102 0.0 0.0 0.00 0.23 0.23 95 1011.3
20260509124841 8 100 0.0 0.0 0.13 0.23 0.23 95 1011.5
20260509124338 8 101 0.0 0.0 0.13 0.23 0.23 95 1011.5
20260509123836 8 100 0.0 0.0 0.18 0.20 0.20 94 1011.4
20260509123333 8 100 0.0 0.0 0.18 0.20 0.20 94 1011.3
20260509122828 8 100 0.0 1.6 0.00 0.18 0.18 94 1011.5
20260509122326 8 94 0.0 0.0 0.00 0.18 0.18 94 1011.4
20260509121822 8 94 0.0 0.0 0.13 0.18 0.18 94 1011.3
20260509121320 8 94 0.0 0.0 0.13 0.18 0.18 94 1011.5
20260509120818 8 93 0.0 0.0 0.00 0.15 0.15 94 1011.7
20260509120315 8 92 0.0 0.0 0.00 0.15 0.15 94 1011.4
20260509115814 8 91 0.0 1.6 0.00 0.15 0.15 94 1011.3
20260509115310 8 136 0.0 0.0 0.00 0.15 0.15 94 1011.3
20260509114808 8 136 0.0 0.0 0.18 0.15 0.15 94 1011.3
20260509114306 8 136 0.0 0.0 0.18 0.15 0.15 94 1011.3
20260509113805 8 136 0.0 0.0 0.00 0.13 0.13 94 1011.3
20260509113301 8 136 0.0 0.0 0.00 0.13 0.13 94 1011.4
20260509112758 8 137 0.0 0.0 0.13 0.13 0.13 94 1011.3
20260509112256 8 137 0.0 0.0 0.13 0.13 0.13 94 1011.4
20260509111752 8 108 0.0 0.0 0.00 0.10 0.10 93 1011.3
20260509111249 8 107 0.0 0.0 0.00 0.10 0.10 93 1011.2
20260509110747 8 107 0.0 0.0 0.00 0.10 0.10 93 1011.1
20260509110243 8 106 0.0 0.0 0.00 0.10 0.10 93 1011.3
20260509105742 8 105 0.0 1.6 0.00 0.10 0.10 93 1011.1
20260509105239 8 100 0.0 0.0 0.18 0.10 0.10 93 1011.3
20260509104736 8 117 0.0 0.0 0.18 0.10 0.10 93 1011.2
20260509104233 8 119 0.0 1.6 0.00 0.08 0.08 93 1011.1
20260509103731 8 118 1.6 1.6 0.00 0.08 0.08 92 1010.9
20260509103228 8 119 0.0 3.2 0.00 0.08 0.08 92 1011.2
20260509102726 8 112 0.0 1.6 0.13 0.08 0.08 91 1011.3
20260509102222 8 124 0.0 3.2 0.13 0.08 0.08 91 1011.4
20260509101719 8 41 0.0 4.8 0.00 0.05 0.05 91 1011.5
20260509101215 8 123 0.0 1.6 0.00 0.05 0.05 90 1011.4
20260509100713 8 125 0.0 1.6 0.18 0.05 0.05 90 1011.4
20260509100210 8 130 0.0 1.6 0.18 0.05 0.05 89 1011.4
20260509095707 8 144 0.0 3.2 0.00 0.03 0.03 89 1011.5
20260509095204 8 120 1.6 1.6 0.00 0.03 0.03 88 1011.6
20260509094700 8 155 1.6 1.6 0.00 0.03 0.03 89 1011.5
20260509094157 8 131 0.0 1.6 0.00 0.03 0.03 88 1011.4
20260509093656 8 138 1.6 1.6 0.00 0.03 0.03 87 1011.7
20260509093153 8 125 1.6 1.6 0.13 0.03 0.03 85 1011.3
20260509092650 9 163 1.6 1.6 0.13 0.03 0.03 83 1011.5
20260509092149 9 120 1.6 1.6 0.00 0.00 0.00 81 1011.7
20260509091646 10 124 0.0 3.2 0.00 0.00 0.00 80 1011.6
20260509091142 10 145 1.6 3.2 0.00 0.00 0.00 78 1011.7
20260509090640 10 65 0.0 3.2 0.00 0.00 0.00 76 1011.6
20260509090137 10 135 1.6 1.6 0.00 0.00 0.00 75 1011.7
20260509085635 10 170 1.6 9.7 0.00 0.00 0.00 72 1011.7
20260509085130 11 153 0.0 3.2 0.00 0.00 0.00 71 1011.5
20260509084628 11 179 1.6 3.2 0.00 0.00 0.00 71 1011.5
20260509084125 11 242 0.0 4.8 0.00 0.00 0.00 71 1011.5
20260509083622 11 41 1.6 1.6 0.00 0.00 0.00 70 1011.4
20260509083119 11 78 0.0 1.6 0.00 0.00 0.00 67 1011.3
20260509082616 11 156 0.0 3.2 0.00 0.00 0.00 66 1011.3
20260509082113 11 103 0.0 1.6 0.00 0.00 0.00 64 1011.1
20260509081610 11 148 0.0 1.6 0.00 0.00 0.00 62 1010.9
20260509081107 11 113 0.0 1.6 0.00 0.00 0.00 62 1010.9
20260509080605 11 241 3.2 4.8 0.00 0.00 0.00 60 1010.8
20260509075600 10 113 0.0 1.6 0.00 0.00 0.00 62 1010.8
20260509075058 10 22 0.0 0.0 0.00 0.00 0.00 65 1010.9
20260509074554 10 22 0.0 1.6 0.00 0.00 0.00 66 1010.8
20260509074051 10 22 0.0 0.0 0.00 0.00 0.00 67 1010.7
20260509073548 10 17 1.6 1.6 0.00 0.00 0.00 64 1010.7
20260509073044 10 36 0.0 0.0 0.00 0.00 0.00 62 1010.6
20260509072541 10 36 0.0 0.0 0.00 0.00 0.00 63 1010.8
20260509072038 10 35 0.0 0.0 0.00 0.00 0.00 64 1010.6
20260509071534 10 34 0.0 0.0 0.00 0.00 0.00 65 1010.6
20260509071032 10 33 0.0 0.0 0.00 0.00 0.00 64 1010.5
20260509070529 10 13 0.0 0.0 0.00 0.00 0.00 65 1010.6
20260509070025 10 31 1.6 1.6 0.00 0.00 0.00 65 1010.6
20260509065520 10 25 1.6 3.2 0.00 0.00 0.00 64 1010.8
20260509065017 10 43 0.0 0.0 0.00 0.00 0.00 65 1010.7
20260509064515 10 43 0.0 0.0 0.00 0.00 0.00 66 1010.5
20260509064013 10 43 0.0 0.0 0.00 0.00 0.00 68 1010.5
20260509063508 10 43 0.0 1.6 0.00 0.00 0.00 68 1010.4
20260509063005 10 43 0.0 0.0 0.00 0.00 0.00 65 1010.6
20260509062502 10 43 0.0 0.0 0.00 0.00 0.00 65 1010.8
20260509062000 10 43 0.0 1.6 0.00 0.00 0.00 65 1010.9
20260509061457 10 43 0.0 1.6 0.00 0.00 0.00 63 1010.8
20260509060954 10 44 0.0 0.0 0.00 0.00 0.00 62 1010.9
20260509060452 10 44 0.0 0.0 0.00 0.00 0.00 62 1010.9
20260509055947 11 43 0.0 0.0 0.00 0.00 0.00 64 1011.2
20260509055442 11 43 0.0 0.0 0.00 0.00 0.00 64 1011.1
20260509054939 11 43 0.0 0.0 0.00 0.00 0.00 59 1011.3
20260509054436 11 43 0.0 0.0 0.00 0.00 0.00 62 1011.1
20260509053934 11 43 0.0 0.0 0.00 0.00 0.00 66 1011.3
20260509053432 11 43 0.0 0.0 0.00 0.00 0.00 63 1011.3
20260509052929 11 43 0.0 0.0 0.00 0.00 0.00 63 1011.6
20260509052426 11 44 0.0 0.0 0.00 0.00 0.00 60 1011.7
20260509051924 11 43 0.0 1.6 0.00 0.00 0.00 62 1011.9
20260509051422 11 43 0.0 0.0 0.00 0.00 0.00 59 1011.9
20260509050919 11 43 0.0 0.0 0.00 0.00 0.00 66 1011.7
20260509050415 11 43 0.0 0.0 0.00 0.00 0.00 62 1011.8
20260509045912 11 43 0.0 0.0 0.00 0.00 0.00 62 1011.7
20260509045409 11 43 0.0 0.0 0.00 0.00 0.00 63 1011.9
20260509044906 11 43 0.0 1.6 0.00 0.00 0.00 62 1011.9
20260509044404 11 43 0.0 1.6 0.00 0.00 0.00 62 1011.8
20260509043900 11 43 0.0 0.0 0.00 0.00 0.00 61 1012.0
20260509043356 11 43 0.0 0.0 0.00 0.00 0.00 61 1011.8
20260509042852 11 43 0.0 0.0 0.00 0.00 0.00 60 1012.0
20260509042349 11 43 0.0 0.0 0.00 0.00 0.00 60 1012.1
20260509041846 11 43 0.0 0.0 0.00 0.00 0.00 61 1012.1
20260509041342 11 43 0.0 0.0 0.00 0.00 0.00 61 1012.1
20260509040841 11 43 0.0 0.0 0.00 0.00 0.00 62 1012.0
20260509040338 12 43 0.0 0.0 0.00 0.00 0.00 61 1012.1
20260509035835 12 43 0.0 0.0 0.00 0.00 0.00 61 1012.0
20260509035332 12 43 0.0 0.0 0.00 0.00 0.00 59 1012.1
20260509034828 12 43 0.0 0.0 0.00 0.00 0.00 59 1012.0
20260509034326 12 43 0.0 0.0 0.00 0.00 0.00 59 1012.1
20260509033823 12 43 0.0 0.0 0.00 0.00 0.00 59 1012.2
20260509033320 12 43 0.0 0.0 0.00 0.00 0.00 60 1012.3
20260509032817 12 43 0.0 0.0 0.00 0.00 0.00 60 1012.0
20260509032314 12 43 0.0 0.0 0.00 0.00 0.00 60 1012.0
20260509031812 12 43 0.0 0.0 0.00 0.00 0.00 60 1012.1
20260509031309 11 43 0.0 0.0 0.00 0.00 0.00 58 1012.2
20260509030807 11 43 0.0 0.0 0.00 0.00 0.00 60 1012.2
20260509030304 11 43 0.0 0.0 0.00 0.00 0.00 62 1012.1
20260509025800 11 43 0.0 0.0 0.00 0.00 0.00 61 1012.2
20260509025256 12 43 0.0 0.0 0.00 0.00 0.00 60 1012.2
20260509024752 12 43 0.0 0.0 0.00 0.00 0.00 59 1012.6
20260509024248 12 43 0.0 0.0 0.00 0.00 0.00 58 1012.3
20260509023745 12 43 0.0 0.0 0.00 0.00 0.00 60 1012.5
20260509023243 12 43 0.0 0.0 0.00 0.00 0.00 60 1012.5
20260509022738 12 42 0.0 0.0 0.00 0.00 0.00 60 1012.5
20260509022236 12 46 0.0 1.6 0.00 0.00 0.00 60 1012.6
20260509021733 12 45 0.0 1.6 0.00 0.00 0.00 62 1012.6
20260509021230 12 50 0.0 1.6 0.00 0.00 0.00 62 1012.5
20260509020728 12 50 0.0 1.6 0.00 0.00 0.00 61 1012.5
20260509020225 12 51 0.0 0.0 0.00 0.00 0.00 60 1012.6
20260509015723 12 51 0.0 1.6 0.00 0.00 0.00 61 1012.5
20260509015221 12 51 0.0 1.6 0.00 0.00 0.00 60 1012.2
20260509014717 12 51 0.0 0.0 0.00 0.00 0.00 60 1012.5
20260509014215 12 51 0.0 0.0 0.00 0.00 0.00 62 1012.0
20260509013711 12 51 0.0 0.0 0.00 0.00 0.00 59 1012.0
20260509013207 12 51 0.0 0.0 0.00 0.00 0.00 60 1012.2
20260509012703 12 51 0.0 0.0 0.00 0.00 0.00 60 1012.1
20260509012200 12 51 0.0 1.6 0.00 0.00 0.00 63 1012.5
20260509011658 12 52 0.0 1.6 0.00 0.00 0.00 61 1012.1
20260509011155 12 51 0.0 1.6 0.00 0.00 0.00 60 1012.0
20260509010653 12 48 0.0 0.0 0.00 0.00 0.00 59 1011.9
20260509010149 12 45 0.0 1.6 0.00 0.00 0.00 59 1011.9
20260509005647 12 42 0.0 1.6 0.00 0.00 0.00 60 1012.0
20260509005143 12 23 0.0 1.6 0.00 0.00 0.00 60 1011.9
20260509004638 12 20 0.0 0.0 0.00 0.00 0.00 59 1012.0
20260509004136 12 27 1.6 1.6 0.00 0.00 0.00 58 1012.0
20260509003634 12 69 0.0 0.0 0.00 0.00 0.00 59 1011.9
20260509003131 12 69 0.0 1.6 0.00 0.00 0.00 58 1011.9
20260509002629 12 94 0.0 1.6 0.00 0.00 0.00 59 1012.1
20260509002126 12 101 0.0 0.0 0.00 0.00 0.00 56 1011.9
20260509001624 12 36 0.0 3.2 0.00 0.00 0.00 57 1012.0
20260509001119 12 77 0.0 1.6 0.00 0.00 0.00 55 1011.7
20260509000618 12 25 0.0 1.6 0.00 0.00 0.00 56 1011.9
20260509000114 13 126 0.0 1.6 0.00 0.00 0.00 54 1011.9
20260508235611 13 122 0.0 0.0 0.00 0.00 0.00 53 1011.7
20260508235108 13 122 0.0 0.0 0.00 0.00 0.00 54 1012.0
20260508234605 13 132 0.0 0.0 0.00 0.00 0.00 52 1011.8
20260508234101 13 163 0.0 1.6 0.00 0.00 0.00 52 1011.8
20260508233601 13 177 0.0 1.6 0.00 0.00 0.00 51 1011.7
20260508233058 13 143 0.0 1.6 0.00 0.00 0.00 53 1011.7
20260508232555 13 251 1.6 1.6 0.00 0.00 0.00 51 1011.6
20260508232051 13 152 0.0 3.2 0.00 0.00 0.00 50 1011.4
20260508231550 13 149 3.2 4.8 0.00 0.00 0.00 50 1011.5
20260508231046 13 204 1.6 6.4 0.00 0.00 0.00 50 1011.6
20260508230543 13 126 1.6 1.6 0.00 0.00 0.00 50 1011.7
20260508230039 14 17 3.2 4.8 0.00 0.00 0.00 47 1011.6
20260508225537 14 171 0.0 3.2 0.00 0.00 0.00 48 1011.5
20260508225033 14 291 3.2 3.2 0.00 0.00 0.00 48 1011.7
20260508224531 14 140 0.0 3.2 0.00 0.00 0.00 48 1011.7
20260508224028 14 292 4.8 6.4 0.00 0.00 0.00 47 1011.6
20260508223526 14 102 1.6 4.8 0.00 0.00 0.00 49 1011.4
20260508223023 14 133 0.0 1.6 0.00 0.00 0.00 48 1011.6
20260508222521 14 141 0.0 3.2 0.00 0.00 0.00 48 1011.4
20260508222017 15 144 3.2 4.8 0.00 0.00 0.00 48 1011.4
20260508221514 15 164 0.0 3.2 0.00 0.00 0.00 47 1011.5
20260508221009 15 301 4.8 9.7 0.00 0.00 0.00 46 1011.5
20260508220506 15 277 6.4 9.7 0.00 0.00 0.00 47 1011.5
20260508220002 15 278 3.2 6.4 0.00 0.00 0.00 45 1011.8
20260508215459 15 260 3.2 4.8 0.00 0.00 0.00 46 1011.8
20260508214955 15 27 1.6 3.2 0.00 0.00 0.00 45 1011.8
20260508214454 15 70 1.6 3.2 0.00 0.00 0.00 45 1011.8
20260508213949 15 269 3.2 4.8 0.00 0.00 0.00 46 1012.0
20260508213447 15 148 4.8 6.4 0.00 0.00 0.00 46 1011.8
20260508212942 15 67 0.0 1.6 0.00 0.00 0.00 47 1011.8
20260508212439 15 97 0.0 4.8 0.00 0.00 0.00 46 1011.8
20260508211935 14 128 1.6 3.2 0.00 0.00 0.00 50 1012.0
20260508211431 13 133 1.6 3.2 0.00 0.00 0.00 54 1011.9
20260508210928 13 145 1.6 1.6 0.00 0.00 0.00 52 1012.0
20260508210425 13 137 0.0 3.2 0.00 0.00 0.00 53 1011.9
20260508205921 13 95 3.2 3.2 0.00 0.00 0.00 50 1012.5
20260508205419 13 159 4.8 4.8 0.00 0.00 0.00 52 1012.3
20260508204914 13 136 0.0 3.2 0.00 0.00 0.00 52 1012.2
20260508204412 12 121 0.0 1.6 0.00 0.00 0.00 54 1012.6
20260508203907 12 288 3.2 4.8 0.00 0.00 0.00 53 1012.6
20260508203404 12 184 0.0 1.6 0.00 0.00 0.00 52 1012.7
20260508202900 12 114 1.6 6.4 0.00 0.00 0.00 52 1013.0
20260508202357 12 51 3.2 4.8 0.00 0.00 0.00 52 1012.5
20260508201855 13 14 1.6 1.6 0.00 0.00 0.00 51 1012.8